Location: Unspecified
(58.9933°N, 5.6375°E)
Time: 17:20:46
(UTC+02:00)

CZ-3 Stage 3 - Visible Passes

Search period start: 28 July 2015 00:00
Search period end: 07 August 2015 00:00
Orbit: 434 x 34792 km, 31.0° (Epoch: 26 July)

Date Brightness Start Highest point End Pass type
(mag) Time Alt. Az. Time Alt. Az. Time Alt. Az.
29 Jul 7.1 01:14:28 10° ESE 01:31:31 15° E 09:08:35 10° ESE visible
01 Aug 7.1 01:07:26 10° ESE 01:24:49 16° E 09:02:09 10° ESE visible
03 Aug 6.8 04:23:08 10° SSW 05:03:45 46° SE 13:08:24 10° S visible
04 Aug 7.0 01:00:35 10° ESE 01:18:11 17° E 08:55:39 10° ESE visible
06 Aug 6.8 04:17:30 10° SSW 04:57:36 46° SSE 13:01:05 10° S visible
